Wind_Speed
26 27 27 28 28 28 29 29 28 29 29 29 29 30 30 31 32 33 33 32 32 32 30 30 30 30 30 30 28 26 27 27 27 26 26 26 26 25 24 24 25 24 24
24 26 27 27 28 28 28 28 28 28 29 29 30 30 30 31 32 33 32 31 31 31 29 29 30 31 30 29 29 28 28 26 26 26 27 27 27 26 26 26 26 26 27
25 26 27 27 27 27 27 28 27 27 28 29 29 29 30 31 31 32 32 32 31 31 31 27 27 29 28 28 27 27 28 28 27 26 26 25 25 27 26 26 26 27 28
26 27 27 27 27 26 27 27 27 27 27 27 28 28 29 30 30 30 29 30 31 31 30 29 27 27 28 28 27 26 28 28 27 28 27 26 26 27 26 27 27 28 29
26 26 27 27 27 27 27 27 27 27 27 27 27 27 27 28 29 29 29 28 28 28 28 26 26 27 27 29 28 27 28 29 29 29 28 28 27 27 27 27 28 29 30
25 25 26 27 27 27 27 27 27 27 27 27 26 26 25 25 26 28 29 29 27 26 27 27 27 27 27 26 27 26 27 28 28 28 27 27 27 27 28 29 30 30 30
24 24 25 26 26 26 26 27 27 27 27 26 26 25 24 24 24 25 27 27 25 25 26 25 25 26 26 25 25 26 26 27 27 27 26 27 27 28 29 29 30 31 31
22 23 24 26 25 25 25 25 25 24 25 25 25 24 23 23 23 24 25 25 24 23 23 22 22 23 24 24 24 25 25 25 26 26 26 27 28 29 29 29 29 31 31
21 22 23 24 24 25 25 23 23 23 22 24 25 24 23 22 22 23 23 23 23 22 21 21 22 22 22 23 23 24 24 25 25 26 28 29 29 29 30 30 29 30 30
20 21 22 22 23 24 23 23 22 22 22 23 24 24 22 21 22 22 23 23 23 22 22 22 22 22 23 23 23 23 24 25 26 26 27 28 29 28 29 28 28 28 28
20 21 21 21 22 21 22 22 22 22 22 22 22 23 22 21 21 22 23 22 21 22 23 23 22 22 23 23 24 24 24 24 25 25 25 26 27 27 26 26 25 25 26
20 21 22 22 22 22 22 22 22 22 21 21 21 20 21 21 20 20 22 22 22 23 23 24 24 23 23 23 24 24 24 24 24 24 24 24 25 24 24 25 25 25 26
22 23 23 23 23 23 23 22 22 22 22 22 22 21 21 20 20 21 21 21 22 23 23 24 24 24 24 24 23 23 24 24 24 24 23 23 23 23 24 25 25 26 27
24 24 24 24 23 23 23 23 22 22 21 21 21 21 21 21 20 21 22 21 22 23 23 23 23 23 23 23 23 23 23 23 23 23 22 23 23 24 25 26 26 27 28
24 25 24 24 23 23 22 21 21 20 20 20 20 21 21 21 21 22 22 21 22 22 23 22 22 22 22 22 22 22 22 23 23 23 23 23 24 25 26 27 28 28 29
25 24 23 23 21 21 20 19 19 19 19 19 19 20 21 21 21 22 21 20 21 21 22 23 23 22 22 22 21 21 21 22 23 23 23 24 25 26 27 28 28 29 29
24 23 23 21 19 18 18 17 17 17 18 18 19 19 20 20 21 21 21 21 21 20 21 21 21 22 21 21 21 21 21 21 22 23 24 25 26 26 27 28 28 29 29
23 22 21 20 18 17 17 16 16 16 16 17 18 19 19 20 19 20 21 20 19 19 19 19 20 20 20 20 21 21 21 22 22 22 23 24 25 26 27 28 28 28 28
21 20 19 18 16 15 14 15 15 15 16 16 17 18 18 18 19 18 18 19 18 18 17 17 19 19 20 20 20 21 21 21 22 22 23 24 25 26 27 27 27 27 26
19 18 17 16 14 13 11 11 12 13 13 14 15 16 16 17 17 16 16 17 16 16 17 18 18 18 19 20 20 20 19 20 21 22 23 24 25 25 26 25 25 24 24
16 15 14 13 11 10 9 9 9 11 12 12 12 12 13 14 15 15 14 14 15 15 16 16 16 16 17 18 18 19 19 20 20 21 22 23 24 24 23 22 21 21 21
13 12 12 10 9 8 8 8 8 9 10 11 11 11 11 12 13 12 12 12 13 14 14 14 14 14 14 15 16 17 18 19 19 19 19 20 20 20 19 19 19 19 20
10 8 7 7 7 6 6 7 7 7 7 9 10 10 10 10 10 10 11 11 11 11 11 12 13 13 13 14 15 15 16 17 17 17 17 17 17 17 17 18 18 18 18
7 5 5 4 5 5 5 5 5 6 6 7 8 9 9 9 10 10 10 10 9 9 9 9 10 10 11 11 11 12 13 13 14 14 14 14 15 15 15 15 15 15 15
4 2 1 0 2 3 4 4 4 5 6 6 7 7 8 8 8 7 7 7 7 7 7 7 8 8 9 9 10 10 11 11 11 12 12 12 12 12 12 13 13 13 13
3 2 2 2 3 3 3 4 4 4 5 5 5 6 6 6 6 5 5 4 4 4 4 5 5 6 7 7 8 8 9 9 9 9 9 10 10 10 11 11 12 12 11
Wind_Direction
270 272 274 274 273 273 272 272 270 268 268 268 265 263 262 259 257 257 257 256 258 258 258 253 252 251 253 250 250 247 247 245 244 245 244 245 244 248 251 253 257 261 263
277 276 276 276 274 272 271 271 271 270 269 268 266 264 262 259 255 255 258 258 257 254 255 251 248 249 249 247 246 245 245 244 243 242 242 244 246 250 252 254 258 261 264
279 277 275 275 273 271 270 269 272 272 270 268 266 264 263 259 258 256 255 256 257 254 254 252 249 247 246 248 247 246 245 244 241 239 241 245 250 252 255 256 258 262 266
281 277 275 276 274 272 271 271 271 270 267 266 265 264 264 261 258 259 255 254 254 253 255 252 252 249 246 246 247 247 244 243 242 241 242 245 251 255 257 258 261 265 268
279 278 277 277 275 275 275 272 271 271 269 267 265 263 262 259 257 254 252 254 255 252 250 249 248 247 244 244 246 245 243 241 243 244 245 248 253 257 258 261 264 267 269
279 277 277 276 276 275 275 273 271 270 269 267 265 261 260 257 254 252 252 249 252 251 248 248 247 247 244 242 240 240 240 240 240 241 244 250 254 258 260 263 266 268 269
280 279 278 277 276 275 274 272 271 270 267 265 263 260 257 254 251 248 248 247 249 248 246 244 244 243 240 241 240 239 238 239 240 242 245 250 254 258 260 264 266 266 267
285 283 280 280 279 276 274 270 270 270 267 263 260 259 255 252 248 246 246 245 244 246 242 240 240 239 237 237 237 238 238 238 242 245 247 250 255 259 260 264 265 264 266
286 285 284 283 279 277 275 271 270 268 265 262 259 256 254 253 248 245 244 243 243 242 239 238 238 236 234 235 237 238 239 239 240 243 247 251 255 258 260 262 265 265 268
287 286 287 286 282 278 274 271 269 267 264 261 259 255 254 252 246 244 242 241 242 241 239 236 235 236 236 237 238 240 243 242 243 246 249 252 254 256 259 261 263 266 269
290 291 290 287 285 279 273 269 268 266 263 260 257 255 251 247 242 239 238 237 239 238 238 237 237 238 240 240 241 242 243 243 246 250 252 254 256 255 258 262 264 267 271
292 291 290 289 286 282 275 269 266 264 261 258 255 252 248 243 240 238 238 239 239 238 238 237 236 237 239 240 241 242 243 244 246 249 252 255 256 256 259 264 268 271 274
295 292 291 290 287 281 275 270 265 261 258 257 252 244 241 239 240 239 237 238 239 238 238 235 235 235 236 240 241 241 244 247 249 251 255 257 256 259 263 268 271 273 276
293 293 292 290 286 280 273 269 266 259 256 253 246 241 238 237 237 237 237 237 237 235 233 231 234 236 237 239 240 243 247 250 252 253 255 256 258 263 267 270 273 275 278
293 293 293 290 286 281 273 268 264 256 252 246 241 239 237 235 235 233 233 236 234 231 232 232 233 237 239 239 240 244 248 251 253 254 257 260 264 266 269 272 274 277 279
292 292 291 289 285 280 273 266 258 250 246 242 240 236 235 234 232 231 232 233 230 231 231 232 234 237 240 243 243 246 250 253 255 257 259 263 268 269 271 274 276 278 280
292 291 290 286 281 277 271 261 254 249 239 235 235 235 233 233 232 233 234 234 234 233 230 232 235 236 240 243 245 250 253 255 257 259 262 264 268 270 273 275 278 280 282
292 291 288 285 281 275 266 257 252 244 236 231 230 229 230 231 232 232 231 232 235 235 233 233 234 237 242 245 248 252 256 259 262 262 264 268 270 272 274 277 279 281 283
292 289 286 283 281 276 265 251 242 237 234 231 231 231 232 231 233 231 232 234 237 236 233 237 239 243 248 251 252 255 258 262 263 266 269 270 273 274 276 278 279 281 283
292 288 285 282 278 272 263 251 239 234 232 233 234 233 232 229 228 230 231 232 235 239 241 244 245 249 251 252 254 256 259 263 265 269 272 273 275 278 281 282 282 283 286
294 289 285 281 274 265 258 248 235 228 228 227 228 225 224 225 224 225 228 233 238 244 248 245 247 251 253 256 259 261 262 266 269 272 274 276 278 280 282 283 285 287 290
297 290 282 274 263 256 245 237 233 227 225 225 223 222 224 228 224 222 223 230 239 243 245 245 248 254 259 261 262 262 264 268 272 275 278 281 282 283 283 286 289 291 294
302 294 281 269 256 252 238 228 228 227 222 218 215 215 218 217 218 221 225 231 235 239 245 251 255 258 263 265 266 268 270 273 275 277 280 282 285 286 288 290 291 294 295
309 296 287 270 250 233 217 210 213 215 213 211 207 207 209 210 213 220 225 227 231 239 247 252 255 259 265 267 271 275 279 281 282 284 286 288 289 289 290 291 293 296 296
335 336 325 245 185 182 189 197 204 201 197 195 194 193 198 203 206 210 217 225 233 236 245 252 257 264 270 275 281 284 285 286 287 289 292 293 294 295 296 297 299 299 299
32 51 70 89 112 127 141 154 156 160 162 163 168 172 175 177 182 190 197 208 220 234 248 258 265 272 279 283 285 287 288 289 291 294 298 301 302 302 303 304 305 305 305
Height
5812 5812 5812 5812 5811 5811 5811 5811 5811 5812 5812 5813 5814 5815 5816 5816 5818 5818 5819 5820 5823 5824 5826 5827 5829 5831 5834 5836 5838 5839 5841 5843 5845 5847 5849 5850 5853 5854 5855 5856 5857 5857 5858
5807 5806 5806 5805 5805 5805 5804 5804 5804 5804 5805 5806 5807 5808 5809 5810 5811 5811 5812 5813 5814 5817 5818 5819 5822 5824 5827 5830 5832 5834 5835 5837 5839 5842 5843 5845 5847 5848 5849 5850 5851 5852 5852
5800 5800 5799 5799 5798 5798 5797 5797 5797 5797 5797 5798 5799 5800 5801 5803 5804 5804 5805 5806 5808 5809 5811 5812 5815 5817 5820 5823 5826 5828 5830 5832 5834 5836 5838 5839 5841 5843 5844 5844 5845 5846 5846
5794 5793 5792 5792 5791 5791 5791 5790 5790 5790 5790 5790 5791 5792 5794 5795 5796 5797 5798 5800 5801 5802 5804 5806 5808 5810 5813 5816 5819 5822 5824 5826 5828 5830 5832 5834 5836 5837 5838 5838 5839 5839 5839
5787 5786 5785 5785 5785 5784 5784 5783 5783 5783 5783 5783 5784 5785 5786 5787 5788 5790 5791 5793 5794 5796 5798 5800 5802 5804 5806 5810 5813 5815 5818 5820 5822 5824 5826 5828 5830 5831 5832 5832 5833 5833 5832
5780 5780 5779 5778 5777 5777 5776 5776 5776 5776 5776 5776 5776 5777 5779 5780 5781 5782 5784 5786 5787 5789 5792 5794 5796 5798 5800 5803 5806 5809 5811 5813 5816 5818 5820 5822 5823 5824 5825 5826 5826 5826 5825
5774 5773 5772 5771 5770 5769 5768 5768 5768 5768 5768 5768 5769 5770 5771 5773 5774 5776 5778 5780 5781 5783 5786 5788 5790 5792 5795 5797 5800 5802 5805 5807 5809 5812 5814 5815 5817 5818 5819 5819 5819 5819 5818
5768 5767 5765 5764 5762 5762 5761 5761 5760 5761 5761 5761 5762 5763 5764 5765 5767 5769 5771 5773 5775 5777 5780 5782 5784 5786 5789 5791 5794 5796 5799 5801 5803 5805 5807 5809 5810 5811 5812 5812 5812 5811 5811
5762 5760 5759 5757 5756 5755 5754 5754 5753 5754 5754 5754 5755 5756 5757 5758 5760 5762 5764 5766 5769 5771 5774 5775 5778 5781 5783 5785 5788 5790 5792 5795 5797 5799 5801 5803 5803 5804 5805 5805 5805 5805 5804
5757 5755 5753 5751 5749 5748 5747 5747 5746 5747 5748 5748 5749 5750 5751 5752 5754 5756 5758 5761 5763 5766 5768 5770 5773 5775 5777 5780 5783 5785 5787 5789 5791 5793 5794 5796 5797 5797 5798 5798 5798 5798 5798
5752 5749 5747 5745 5743 5742 5741 5740 5740 5740 5741 5742 5742 5744 5745 5747 5748 5750 5753 5755 5757 5760 5762 5764 5767 5769 5771 5774 5777 5779 5781 5783 5785 5786 5788 5789 5790 5790 5791 5791 5791 5791 5790
5746 5744 5742 5739 5737 5736 5735 5734 5734 5734 5735 5735 5736 5738 5739 5741 5743 5745 5748 5750 5752 5755 5757 5759 5761 5764 5766 5768 5771 5773 5775 5777 5779 5780 5781 5782 5783 5784 5784 5784 5784 5784 5783
5740 5738 5735 5733 5731 5729 5728 5728 5728 5728 5728 5729 5730 5732 5734 5736 5738 5740 5742 5745 5747 5749 5752 5754 5756 5758 5760 5763 5765 5768 5769 5771 5773 5774 5776 5776 5777 5778 5778 5778 5778 5777 5776
5734 5732 5729 5726 5724 5723 5722 5721 5721 5721 5722 5723 5725 5727 5729 5731 5733 5735 5737 5739 5742 5744 5746 5749 5751 5753 5755 5757 5760 5762 5764 5765 5767 5769 5770 5770 5771 5771 5771 5771 5770 5770 5768
5728 5725 5723 5720 5718 5716 5715 5715 5714 5715 5716 5717 5719 5721 5723 5726 5728 5730 5732 5734 5737 5739 5741 5744 5746 5748 5751 5752 5754 5756 5758 5760 5762 5763 5763 5764 5764 5764 5764 5764 5763 5762 5761
5721 5719 5716 5714 5712 5710 5709 5709 5709 5709 5711 5713 5714 5716 5718 5721 5723 5725 5727 5729 5732 5734 5736 5739 5741 5743 5745 5747 5749 5751 5753 5754 5755 5756 5757 5758 5758 5758 5757 5756 5755 5754 5753
5715 5712 5710 5708 5706 5705 5704 5703 5704 5704 5706 5708 5710 5712 5714 5716 5718 5720 5723 5725 5727 5729 5731 5734 5736 5738 5740 5742 5744 5746 5747 5748 5749 5750 5751 5751 5751 5751 5750 5749 5748 5747 5745
5709 5706 5704 5702 5701 5700 5699 5699 5699 5700 5702 5704 5706 5708 5710 5712 5714 5716 5718 5721 5723 5725 5726 5729 5731 5733 5735 5737 5739 5740 5742 5743 5744 5744 5744 5744 5744 5743 5743 5742 5741 5739 5738
5702 5700 5698 5697 5696 5695 5694 5695 5695 5697 5698 5700 5702 5704 5706 5708 5710 5712 5714 5717 5719 5721 5723 5725 5727 5729 5731 5732 5734 5735 5736 5737 5737 5738 5738 5738 5738 5737 5736 5735 5733 5732 5730
5697 5695 5693 5692 5692 5691 5691 5691 5692 5693 5695 5697 5699 5700 5702 5704 5706 5709 5711 5713 5716 5718 5720 5722 5724 5725 5726 5728 5729 5730 5731 5731 5732 5732 5732 5732 5731 5730 5729 5728 5726 5725 5724
5692 5690 5689 5689 5688 5688 5689 5689 5690 5691 5693 5694 5696 5698 5700 5701 5704 5706 5708 5711 5713 5715 5717 5718 5720 5721 5722 5723 5724 5725 5726 5726 5726 5726 5726 5725 5724 5723 5722 5721 5720 5719 5718
5688 5687 5686 5686 5686 5686 5687 5687 5688 5689 5690 5692 5694 5695 5697 5699 5701 5704 5706 5708 5710 5712 5714 5715 5716 5717 5718 5719 5720 5720 5721 5721 5721 5720 5720 5719 5718 5718 5717 5716 5715 5714 5712
5685 5684 5683 5683 5683 5684 5685 5686 5687 5687 5688 5690 5692 5694 5696 5698 5700 5702 5704 5706 5708 5710 5711 5712 5713 5714 5715 5716 5716 5716 5716 5716 5716 5715 5715 5714 5714 5713 5712 5711 5710 5709 5708
5683 5682 5682 5682 5682 5683 5684 5685 5686 5687 5688 5689 5691 5693 5695 5697 5699 5701 5703 5704 5706 5707 5709 5710 5711 5711 5712 5712 5712 5712 5712 5712 5712 5711 5711 5710 5710 5709 5708 5707 5706 5705 5704
5683 5682 5682 5681 5682 5682 5683 5684 5685 5686 5688 5689 5691 5692 5694 5696 5698 5700 5702 5703 5705 5706 5707 5708 5709 5709 5709 5709 5709 5709 5709 5709 5708 5708 5708 5707 5706 5705 5704 5703 5702 5701 5700
5684 5683 5683 5682 5682 5683 5683 5684 5685 5687 5688 5689 5691 5692 5694 5696 5698 5700 5701 5702 5704 5705 5705 5706 5707 5707 5707 5707 5707 5707 5706 5706 5706 5706 5705 5704 5703 5703 5702 5700 5699 5698 5697